Weather History for KFET - February, 2013

Change the Weather History Date:

Thursday, February 14, 2013

  Actual Average Record
Temperature  
Mean Temperature 32 °F -  
Max Temperature 45 °F 37 °F - (-1)
Min Temperature 20 °F 18 °F - (-1)
Degree Days  
Heating Degree Days 32    
Moisture  
Dew Point 28 °F    
Average Humidity 77    
Maximum Humidity 99    
Minimum Humidity 42    
Precipitation  
Precipitation 0.00 in - - ()
Sea Level Pressure  
Sea Level Pressure 30.02 in    
Wind  
Wind Speed 13 mph (WNW)    
Max Wind Speed 26 mph    
Max Gust Speed 32 mph    
Visibility 10 miles    
Events Snow    
Averages and records for this station are not official NWS values.
T = Trace of Precipitation, MM = Missing Value Source: NWS Daily Summary

Daily Weather History Graph

Daily Weather History Graph

Search for Another Location

Airport or City:

Trip Planner

Search our weather history database for the weather conditions in past years. The results will help you decide how hot, cold, wet, or windy it might be!

Date:

Astronomy

Feb. 14, 2013 Rise Set
Actual Time 7:22 AM CST 5:58 PM CST
Civil Twilight 6:53 AM CST 6:27 PM CST
Nautical Twilight 6:21 AM CST 6:59 PM CST
Astronomical Twilight 5:49 AM CST 7:32 PM CST
Moon 9:20 AM CST (2/14) 11:07 PM CST (2/14)
Length of Visible Light 11h 33m
Length of Day
10h 36m
Waxing Crescent, 22% of the Moon is Illuminated
Feb 14
Waxing Crescent
Feb 17
First Quarter
Feb 25
Full
Mar 4
Last Quarter
Mar 11
New

Hourly Weather History & Observations

Time (CST) Temp. Windchill Dew Point Humidity Pressure Visibility Wind Dir Wind Speed Gust Speed Precip Events Conditions
12:15 AM 38.7 °F 30.1 °F 31.8 °F 76% 29.80 in 10.0 mi West 15.0 mph - N/A   Clear
12:35 AM 37.6 °F 30.0 °F 31.8 °F 80% 29.81 in 10.0 mi West 11.5 mph - N/A   Clear
12:55 AM 36.9 °F 29.6 °F 31.8 °F 82% 29.81 in 10.0 mi WNW 10.4 mph - N/A   Clear
1:15 AM 37.8 °F 29.8 °F 32.0 °F 80% 29.82 in 10.0 mi West 12.7 mph - N/A   Clear
1:35 AM 37.6 °F 29.1 °F 32.0 °F 80% 29.83 in 10.0 mi West 13.8 mph - N/A   Clear
1:55 AM 37.4 °F 28.9 °F 32.0 °F 81% 29.83 in 10.0 mi West 13.8 mph - N/A   Clear
2:15 AM 36.5 °F 26.7 °F 32.0 °F 84% 29.84 in 10.0 mi West 17.3 mph - N/A   Clear
2:35 AM 36.5 °F 29.2 °F 31.5 °F 82% 29.85 in 10.0 mi WNW 10.4 mph - N/A   Clear
2:55 AM 35.1 °F 25.9 °F 31.5 °F 87% 29.85 in 10.0 mi West 13.8 mph - N/A   Clear
3:15 AM 36.5 °F 28.2 °F 31.8 °F 83% 29.86 in 10.0 mi West 12.7 mph - N/A   Clear
3:35 AM 35.8 °F 27.3 °F 31.5 °F 84% 29.86 in 10.0 mi WNW 12.7 mph - N/A   Clear
3:55 AM 34.5 °F 26.7 °F 30.9 °F 87% 29.86 in 10.0 mi WNW 10.4 mph - N/A   Clear
4:15 AM 31.6 °F 23.7 °F 29.8 °F 93% 29.87 in 10.0 mi West 9.2 mph - N/A   Clear
4:35 AM 34.0 °F 26.6 °F 31.1 °F 89% 29.88 in 10.0 mi West 9.2 mph - N/A   Scattered Clouds
4:55 AM 30.4 °F 22.9 °F 28.9 °F 94% 29.88 in 10.0 mi WNW 8.1 mph - N/A   Clear
5:15 AM 32.0 °F 24.2 °F 30.6 °F 94% 29.89 in 10.0 mi WNW 9.2 mph - N/A   Clear
5:35 AM 31.1 °F 23.7 °F 30.0 °F 96% 29.90 in 10.0 mi West 8.1 mph - N/A   Scattered Clouds
5:55 AM 30.2 °F 21.3 °F 29.3 °F 96% 29.90 in 10.0 mi West 10.4 mph - N/A   Scattered Clouds
6:15 AM 29.5 °F 21.8 °F 28.8 °F 97% 29.91 in 10.0 mi West 8.1 mph - N/A   Clear
6:35 AM 30.7 °F 23.3 °F 29.7 °F 96% 29.92 in 10.0 mi West 8.1 mph - N/A   Scattered Clouds
6:55 AM 30.2 °F 22.6 °F 28.9 °F 95% 29.94 in 10.0 mi West 8.1 mph - N/A   Clear
7:15 AM 29.1 °F 22.1 °F 28.4 °F 97% 29.94 in 10.0 mi West 6.9 mph - N/A   Clear
7:35 AM 29.5 °F 23.4 °F 29.1 °F 99% 29.94 in 10.0 mi West 5.8 mph - N/A   Scattered Clouds
7:55 AM 30.2 °F 23.4 °F 29.3 °F 96% 29.95 in 10.0 mi West 6.9 mph - N/A   Scattered Clouds
8:15 AM 31.1 °F 24.5 °F 30.0 °F 96% 29.96 in 10.0 mi West 6.9 mph - N/A   Clear
8:35 AM 32.0 °F 28.7 °F 30.9 °F 96% 29.96 in 10.0 mi West 3.5 mph - N/A   Clear
8:55 AM 33.6 °F 26.8 °F 32.0 °F 94% 29.96 in 10.0 mi West 8.1 mph - N/A   Clear
9:15 AM 35.8 °F 29.4 °F 32.2 °F 87% 29.98 in 10.0 mi West 8.1 mph - N/A   Clear
9:35 AM 37.0 °F 29.8 °F 32.2 °F 83% 29.98 in 10.0 mi West 10.4 mph - N/A   Clear
9:55 AM 38.3 °F 30.9 °F 32.2 °F 79% 29.99 in 10.0 mi West 11.5 mph 17.3 mph N/A   Clear
10:15 AM 38.5 °F 31.1 °F 32.0 °F 78% 29.99 in 10.0 mi West 11.5 mph - N/A   Clear
10:35 AM 39.2 °F 32.5 °F 32.2 °F 76% 30.00 in 10.0 mi West 10.4 mph - N/A   Clear
10:55 AM 42.4 °F 33.5 °F 27.5 °F 56% 30.00 in 10.0 mi NW 20.7 mph 29.9 mph N/A   Scattered Clouds
11:15 AM 43.0 °F 33.5 °F 25.3 °F 50% 30.00 in 10.0 mi NW 24.2 mph 28.8 mph N/A   Scattered Clouds
11:35 AM 44.1 °F 34.6 °F 23.9 °F 45% 30.01 in 10.0 mi WNW 26.5 mph 32.2 mph N/A   Scattered Clouds
11:55 AM 44.6 °F 35.5 °F 23.5 °F 44% 30.01 in 10.0 mi WNW 25.3 mph 31.1 mph N/A   Scattered Clouds
12:15 PM 42.8 °F 33.8 °F 23.9 °F 47% 30.01 in 10.0 mi NW 21.9 mph - N/A   Mostly Cloudy
12:35 PM 43.5 °F 35.2 °F 24.6 °F 47% 30.01 in 10.0 mi NW 19.6 mph 27.6 mph N/A   Scattered Clouds
12:55 PM 44.6 °F 37.2 °F 24.4 °F 45% 30.01 in 10.0 mi WNW 17.3 mph 27.6 mph N/A   Mostly Cloudy
1:15 PM 43.2 °F 34.7 °F 23.9 °F 47% 30.01 in 10.0 mi NW 19.6 mph 26.5 mph N/A   Mostly Cloudy
1:35 PM 45.1 °F 36.6 °F 23.4 °F 42% 30.01 in 10.0 mi NW 23.0 mph 27.6 mph N/A   Mostly Cloudy
1:55 PM 43.2 °F 34.7 °F 23.0 °F 45% 30.02 in 10.0 mi NW 19.6 mph 25.3 mph N/A   Overcast
2:15 PM 44.2 °F 36.4 °F 23.7 °F 44% 30.03 in 10.0 mi WNW 18.4 mph 27.6 mph N/A   Overcast
2:35 PM 42.6 °F 33.8 °F 23.7 °F 47% 30.03 in 10.0 mi NW 20.7 mph 25.3 mph N/A   Overcast
2:55 PM 44.1 °F 37.1 °F 24.3 °F 46% 30.03 in 10.0 mi NW 15.0 mph 24.2 mph N/A   Overcast
3:15 PM 41.9 °F 34.0 °F 25.3 °F 52% 30.04 in 10.0 mi NW 16.1 mph - N/A   Overcast
3:35 PM 41.5 °F 34.6 °F 26.2 °F 55% 30.04 in 10.0 mi NNW 12.7 mph 17.3 mph N/A   Overcast
3:55 PM 39.9 °F 32.1 °F 28.8 °F 64% 30.06 in 10.0 mi NW 13.8 mph - N/A   Overcast
4:15 PM 39.9 °F 32.9 °F 29.1 °F 65% 30.06 in 10.0 mi NNW 11.5 mph - N/A   Overcast
4:35 PM 38.8 °F 31.6 °F 29.3 °F 69% 30.07 in 10.0 mi NW 11.5 mph - N/A   Overcast
4:55 PM 38.7 °F 31.4 °F 28.9 °F 68% 30.07 in 10.0 mi NW 11.5 mph - N/A   Overcast
5:15 PM 37.0 °F 28.5 °F 30.2 °F 76% 30.08 in 10.0 mi NNW 13.8 mph 24.2 mph N/A   Overcast
5:35 PM 35.6 °F 28.6 °F 32.0 °F 87% 30.09 in 10.0 mi NNW 9.2 mph - N/A   Overcast
5:55 PM 34.7 °F 27.5 °F 31.8 °F 89% 30.10 in 10.0 mi NW 9.2 mph - N/A   Overcast
6:15 PM 34.3 °F 25.9 °F 32.0 °F 91% 30.11 in 10.0 mi West 11.5 mph - N/A Snow Light Snow
6:35 PM 33.8 °F 27.0 °F 32.9 °F 96% 30.11 in 7.0 mi WNW 8.1 mph - N/A Snow Light Snow
6:55 PM 33.3 °F 27.1 °F 32.9 °F 99% 30.12 in 7.0 mi WNW 6.9 mph - N/A Snow Light Snow
7:15 PM 33.6 °F 25.6 °F 32.9 °F 97% 30.13 in 5.0 mi NW 10.4 mph - N/A Snow Light Snow
7:35 PM 32.0 °F 21.2 °F 31.8 °F 99% 30.15 in 1.8 mi North 16.1 mph 23.0 mph N/A Snow Light Snow
7:55 PM 28.8 °F 17.5 °F 28.4 °F 99% 30.18 in 0.5 mi North 15.0 mph 32.2 mph N/A Snow Snow
8:15 PM 28.9 °F 17.3 °F 23.9 °F 81% 30.19 in 10.0 mi NNW 16.1 mph 24.2 mph N/A   Overcast
8:35 PM 29.1 °F 18.9 °F 22.8 °F 77% 30.21 in 10.0 mi NNW 12.7 mph 21.9 mph N/A   Overcast
8:55 PM 28.2 °F 17.2 °F 20.8 °F 74% 30.21 in 10.0 mi NNW 13.8 mph 28.8 mph N/A   Overcast
9:15 PM 27.3 °F 14.4 °F 19.8 °F 73% 30.23 in 10.0 mi NNW 18.4 mph 24.2 mph N/A   Overcast
9:35 PM 26.4 °F 14.0 °F 19.2 °F 74% 30.25 in 10.0 mi NNW 16.1 mph 20.7 mph N/A   Overcast
9:55 PM 25.5 °F 12.4 °F 21.2 °F 84% 30.26 in 10.0 mi NW 17.3 mph 25.3 mph N/A   Overcast
10:15 PM 24.3 °F 10.0 °F 20.3 °F 85% 30.27 in 10.0 mi NW 19.6 mph 25.3 mph N/A   Overcast
10:35 PM 23.0 °F 9.2 °F 18.0 °F 81% 30.28 in 10.0 mi NW 17.3 mph 25.3 mph N/A   Overcast
10:55 PM 22.1 °F 9.5 °F 17.6 °F 83% 30.29 in 10.0 mi NW 13.8 mph 19.6 mph N/A   Overcast
11:15 PM 21.2 °F 8.3 °F 16.0 °F 80% 30.29 in 10.0 mi NW 13.8 mph 19.6 mph N/A   Scattered Clouds
11:35 PM 20.5 °F 8.6 °F 14.9 °F 79% 30.29 in 10.0 mi NW 11.5 mph 16.1 mph N/A   Clear
11:55 PM 20.1 °F 7.5 °F 14.9 °F 80% 30.29 in 10.0 mi NW 12.7 mph - N/A   Clear